Location: Brede
(50.9167°N, 0.6000°E)
Time: 02:22:36
(UTC+00:00)

SL-4 R/B - Pass Details

Date: 08 August 2020
Orbit: 428 x 665 km, 51.6° (Epoch: 19 September)

Event Time Altitude Azimuth Distance (km) Brightness Sun altitude
Exits shadow 01:54:30 20° 130° (SE) 1,056 3.3 -18.8°
Drops below altitude 10° 01:55:41 10° 124° (SE) 1,523 4.2 -18.7°
Sets 01:57:47 0° 120° (ESE) 2,387 5.3 -18.5°
